N444BC KHOU-KTEB

Flight info

Callsign N444BC
Flight time 2h 28m
Altitude 43000
Route LURIC8 HAWES SUTTN J29 CARIN MEMFS Q34 GVE JAIKE4
Aircraft C750/M-SBDE3FGHRWXY/S

Departure

Time 2026-05-05 20:19
Airport William P. Hobby Airport (KHOU)

Arrival

Time 2026-05-05 22:48
Airport Teterboro Airport (KTEB)
Time Latitude Longitude Altitude Speed Heading
2026-05-05 20:06 29.64310 -95.28696 48 ft 0 kts 358°
2026-05-05 20:15 29.64311 -95.28696 48 ft 2 kts
2026-05-05 20:15 29.64318 -95.28651 48 ft 12 kts 90°
2026-05-05 20:15 29.64346 -95.28547 47 ft 14 kts
2026-05-05 20:16 29.64439 -95.28550 48 ft 13 kts
2026-05-05 20:16 29.64539 -95.28552 48 ft 16 kts 358°
2026-05-05 20:16 29.64657 -95.28557 48 ft 17 kts 359°
2026-05-05 20:16 29.64776 -95.28557 48 ft 16 kts
2026-05-05 20:17 29.64809 -95.28461 48 ft 14 kts 92°
2026-05-05 20:17 29.64811 -95.28358 48 ft 12 kts 88°
2026-05-05 20:17 29.64811 -95.28351 48 ft 0 kts 88°
2026-05-05 20:18 29.64811 -95.28349 48 ft 2 kts 89°
2026-05-05 20:18 29.64812 -95.28283 48 ft 14 kts 82°
2026-05-05 20:18 29.64823 -95.28228 48 ft 0 kts 131°
2026-05-05 20:18 29.64670 -95.28048 46 ft 85 kts 134°
2026-05-05 20:19 29.64073 -95.27342 162 ft 141 kts 140°
2026-05-05 20:19 29.63419 -95.26371 519 ft 170 kts 116°
2026-05-05 20:19 29.63441 -95.24906 932 ft 205 kts 73°
2026-05-05 20:19 29.64495 -95.23681 1273 ft 238 kts 26°
2026-05-05 20:20 29.66193 -95.23445 1908 ft 246 kts 352°
2026-05-05 20:20 29.67792 -95.23618 3446 ft 220 kts 351°
2026-05-05 20:20 29.69309 -95.23757 4395 ft 225 kts 351°
2026-05-05 20:20 29.70909 -95.23907 5187 ft 232 kts 352°
2026-05-05 20:21 29.72518 -95.24053 6074 ft 234 kts 352°
2026-05-05 20:21 29.74154 -95.24189 6878 ft 238 kts 350°
2026-05-05 20:21 29.75807 -95.24296 7800 ft 237 kts 353°
2026-05-05 20:21 29.77454 -95.24419 8776 ft 239 kts 351°
2026-05-05 20:22 29.79135 -95.24546 9713 ft 242 kts 351°
2026-05-05 20:22 29.80793 -95.24673 10518 ft 242 kts 351°
2026-05-05 20:22 29.82490 -95.24798 11294 ft 245 kts 351°
2026-05-05 20:22 29.84201 -95.24906 12113 ft 247 kts 352°
2026-05-05 20:23 29.85925 -95.25005 12924 ft 249 kts 351°
2026-05-05 20:23 29.87668 -95.25087 13706 ft 252 kts 351°
2026-05-05 20:23 29.89431 -95.25148 14403 ft 255 kts 351°
2026-05-05 20:23 29.91211 -95.25191 15121 ft 257 kts 351°
2026-05-05 20:24 29.93008 -95.25217 15824 ft 261 kts 351°
2026-05-05 20:24 29.94906 -95.25246 16006 ft 288 kts 352°
2026-05-05 20:24 29.97023 -95.25305 16017 ft 320 kts 352°
2026-05-05 20:24 29.99347 -95.25397 16021 ft 348 kts 352°
2026-05-05 20:25 30.01801 -95.25514 16023 ft 364 kts 351°
2026-05-05 20:25 30.04389 -95.25643 16014 ft 383 kts 352°
2026-05-05 20:25 30.07137 -95.25609 15979 ft 408 kts
2026-05-05 20:25 30.09953 -95.24759 15988 ft 433 kts 16°
2026-05-05 20:26 30.12654 -95.23030 16166 ft 450 kts 30°
2026-05-05 20:26 30.15219 -95.21000 17034 ft 442 kts 30°
2026-05-05 20:26 30.17771 -95.19001 17616 ft 446 kts 30°
2026-05-05 20:26 30.20350 -95.16974 18144 ft 450 kts 30°
2026-05-05 20:27 30.22943 -95.14913 18653 ft 454 kts 30°
2026-05-05 20:27 30.25561 -95.12832 19176 ft 458 kts 29°
2026-05-05 20:27 30.28209 -95.10742 19698 ft 462 kts 28°
2026-05-05 20:27 30.30840 -95.08663 20245 ft 466 kts 28°
2026-05-05 20:28 30.33532 -95.06525 20739 ft 471 kts 28°
2026-05-05 20:28 30.36244 -95.04369 21281 ft 475 kts 27°
2026-05-05 20:28 30.38979 -95.02198 21814 ft 479 kts 27°
2026-05-05 20:28 30.41741 -95.00008 22354 ft 483 kts 27°
2026-05-05 20:29 30.44525 -94.97793 22884 ft 487 kts 27°
2026-05-05 20:29 30.47329 -94.95559 23412 ft 491 kts 27°
2026-05-05 20:29 30.50153 -94.93310 23937 ft 493 kts 26°
2026-05-05 20:29 30.52995 -94.91046 24382 ft 497 kts 26°
2026-05-05 20:30 30.55862 -94.88778 24803 ft 499 kts 25°
2026-05-05 20:30 30.58778 -94.86556 25227 ft 503 kts 25°
2026-05-05 20:30 30.61672 -94.84325 25661 ft 507 kts 26°
2026-05-05 20:30 30.64613 -94.82048 26101 ft 511 kts 26°
2026-05-05 20:31 30.67587 -94.79764 26529 ft 514 kts 25°
2026-05-05 20:31 30.70583 -94.77469 26939 ft 518 kts 25°
2026-05-05 20:31 30.73601 -94.75142 27364 ft 522 kts 26°
2026-05-05 20:31 30.76632 -94.72797 27778 ft 526 kts 26°
2026-05-05 20:32 30.79694 -94.70434 28200 ft 529 kts 25°
2026-05-05 20:32 30.82771 -94.68063 28602 ft 533 kts 26°
2026-05-05 20:32 30.85873 -94.65667 29008 ft 536 kts 26°
2026-05-05 20:32 30.88990 -94.63252 29405 ft 540 kts 25°
2026-05-05 20:33 30.92135 -94.60817 29773 ft 544 kts 25°
2026-05-05 20:33 30.95293 -94.58373 30101 ft 547 kts 25°
2026-05-05 20:33 30.98467 -94.55913 30456 ft 549 kts 26°
2026-05-05 20:33 31.01654 -94.53438 30778 ft 552 kts 26°
2026-05-05 20:34 31.04861 -94.50951 31068 ft 555 kts 25°
2026-05-05 20:34 31.08092 -94.48448 31375 ft 559 kts 25°
2026-05-05 20:34 31.11341 -94.45927 31684 ft 562 kts 26°
2026-05-05 20:34 31.14537 -94.43427 32768 ft 543 kts 25°
2026-05-05 20:35 31.17685 -94.40973 33122 ft 547 kts 25°
2026-05-05 20:35 31.20839 -94.38546 33376 ft 552 kts 25°
2026-05-05 20:35 31.24057 -94.36041 33725 ft 556 kts 25°
2026-05-05 20:35 31.27269 -94.33512 34015 ft 559 kts 25°
2026-05-05 20:36 31.30510 -94.30970 34373 ft 560 kts 25°
2026-05-05 20:36 31.33756 -94.28446 34732 ft 561 kts 25°
2026-05-05 20:36 31.37003 -94.25914 35087 ft 562 kts 25°
2026-05-05 20:36 31.40261 -94.23354 35530 ft 561 kts 25°
2026-05-05 20:37 31.43415 -94.20854 36826 ft 538 kts 25°
2026-05-05 20:37 31.45466 -94.19241 37158 ft 537 kts 24°
2026-05-05 20:37 31.49640 -94.16007 37831 ft 531 kts 24°
2026-05-05 20:37 31.52681 -94.13612 38492 ft 527 kts 24°
2026-05-05 20:38 31.55732 -94.11203 38702 ft 530 kts 24°
2026-05-05 20:38 31.58810 -94.08783 38997 ft 532 kts 24°
2026-05-05 20:38 31.61896 -94.06359 39290 ft 535 kts 24°
2026-05-05 20:38 31.64952 -94.03950 39561 ft 537 kts 25°
2026-05-05 20:39 31.68073 -94.01484 39838 ft 540 kts 25°
2026-05-05 20:39 31.71200 -93.99014 40117 ft 542 kts 25°
2026-05-05 20:39 31.74339 -93.96536 40428 ft 545 kts 24°
2026-05-05 20:39 31.77508 -93.94030 40593 ft 549 kts 25°
2026-05-05 20:40 31.80600 -93.91333 40794 ft 558 kts 29°
2026-05-05 20:40 31.86748 -93.85660 40846 ft 571 kts 29°
2026-05-05 20:41 31.93055 -93.79926 40837 ft 573 kts 29°
2026-05-05 20:41 31.99339 -93.74152 40840 ft 573 kts 29°
2026-05-05 20:42 32.05648 -93.68378 40841 ft 576 kts 29°
2026-05-05 20:42 32.11964 -93.62563 40841 ft 576 kts 29°
2026-05-05 20:43 32.18244 -93.56785 40834 ft 576 kts 29°
2026-05-05 20:43 32.24572 -93.50948 40835 ft 576 kts 29°
2026-05-05 20:44 32.30883 -93.45114 40864 ft 576 kts 29°
2026-05-05 20:44 32.37218 -93.39252 40820 ft 577 kts 29°
2026-05-05 20:45 32.46673 -93.30481 40823 ft 578 kts 29°
2026-05-05 20:45 32.52999 -93.24592 40823 ft 578 kts 29°
2026-05-05 20:46 32.59335 -93.18693 40833 ft 579 kts 29°
2026-05-05 20:46 32.65672 -93.12776 40824 ft 580 kts 29°
2026-05-05 20:47 32.72007 -93.06852 40824 ft 580 kts 29°
2026-05-05 20:47 32.78335 -93.00921 40821 ft 576 kts 29°
2026-05-05 20:48 32.84600 -92.95043 40813 ft 577 kts 28°
2026-05-05 20:48 32.90880 -92.89136 40822 ft 577 kts 28°
2026-05-05 20:49 32.97194 -92.83243 40806 ft 573 kts 26°
2026-05-05 20:49 33.03650 -92.77655 40805 ft 573 kts 26°
2026-05-05 20:50 33.09006 -92.72971 40816 ft 574 kts 26°
2026-05-05 20:50 33.16554 -92.66385 40814 ft 575 kts 26°
2026-05-05 20:51 33.22986 -92.60744 40809 ft 572 kts 26°
2026-05-05 20:51 33.29420 -92.55112 40804 ft 573 kts 26°
2026-05-05 20:52 33.35803 -92.49499 40800 ft 574 kts 26°
2026-05-05 20:52 33.42235 -92.43840 40794 ft 574 kts 26°
2026-05-05 20:53 33.48641 -92.38117 40780 ft 579 kts 29°
2026-05-05 20:53 33.51612 -92.34775 40785 ft 592 kts 38°
2026-05-05 20:53 33.54274 -92.30957 40792 ft 599 kts 44°
2026-05-05 20:54 33.58469 -92.24337 40810 ft 598 kts 44°
2026-05-05 20:54 33.63640 -92.16536 40812 ft 596 kts 43°
2026-05-05 20:55 33.68736 -92.08635 40811 ft 600 kts 44°
2026-05-05 20:55 33.73849 -92.00789 40812 ft 598 kts 43°
2026-05-05 20:56 33.78965 -91.92890 40814 ft 599 kts 44°
2026-05-05 20:56 33.84063 -91.84992 40818 ft 595 kts 43°
2026-05-05 20:57 33.89165 -91.77105 40816 ft 596 kts 43°
2026-05-05 20:57 33.94243 -91.69192 40859 ft 597 kts 43°
2026-05-05 20:58 33.99313 -91.61316 40826 ft 599 kts 43°
2026-05-05 20:58 34.04406 -91.53350 40822 ft 599 kts 43°
2026-05-05 20:59 34.09487 -91.45412 40837 ft 596 kts 43°
2026-05-05 20:59 34.14546 -91.37477 40841 ft 597 kts 43°
2026-05-05 21:00 34.19621 -91.29507 40839 ft 597 kts 43°
2026-05-05 21:00 34.24688 -91.21528 40843 ft 599 kts 43°
2026-05-05 21:01 34.29722 -91.13581 40848 ft 599 kts 43°
2026-05-05 21:01 34.34768 -91.05599 40839 ft 596 kts 43°
2026-05-05 21:02 34.39807 -90.97614 40837 ft 597 kts 43°
2026-05-05 21:02 34.44843 -90.89612 40841 ft 597 kts 43°
2026-05-05 21:03 34.49894 -90.81573 40841 ft 599 kts 43°
2026-05-05 21:03 34.54940 -90.73513 40839 ft 598 kts 43°
2026-05-05 21:04 34.59931 -90.65533 40842 ft 597 kts 43°
2026-05-05 21:04 34.64950 -90.57489 40842 ft 597 kts 43°
2026-05-05 21:05 34.69963 -90.49431 40846 ft 598 kts 43°
2026-05-05 21:05 34.74979 -90.41356 40842 ft 600 kts 43°
2026-05-05 21:06 34.79982 -90.33272 40840 ft 595 kts 43°
2026-05-05 21:06 34.84938 -90.25266 40843 ft 595 kts 43°
2026-05-05 21:07 34.89912 -90.17195 40842 ft 596 kts 44°
2026-05-05 21:07 34.94888 -90.09110 40846 ft 596 kts 44°
2026-05-05 21:08 34.99853 -90.01000 40887 ft 598 kts 45°
2026-05-05 21:08 35.02085 -89.96643 40837 ft 609 kts 53°
2026-05-05 21:08 35.03887 -89.92000 40845 ft 613 kts 59°
2026-05-05 21:09 35.07172 -89.82345 40868 ft 614 kts 59°
2026-05-05 21:09 35.10698 -89.72853 40865 ft 614 kts 59°
2026-05-05 21:10 35.14019 -89.63276 40865 ft 615 kts 60°
2026-05-05 21:10 35.17477 -89.53711 40869 ft 614 kts 59°
2026-05-05 21:11 35.20852 -89.44092 40868 ft 615 kts 60°
2026-05-05 21:11 35.24258 -89.34486 40867 ft 614 kts 59°
2026-05-05 21:12 35.27643 -89.24868 40860 ft 615 kts 60°
2026-05-05 21:12 35.30982 -89.15335 40862 ft 611 kts 59°
2026-05-05 21:13 35.34334 -89.05790 40860 ft 611 kts 60°
2026-05-05 21:13 35.37683 -88.96166 40866 ft 612 kts 59°
2026-05-05 21:14 35.41034 -88.86567 40868 ft 612 kts 60°
2026-05-05 21:14 35.44332 -88.77030 40868 ft 609 kts 59°
2026-05-05 21:15 35.47653 -88.67457 40861 ft 610 kts 60°
2026-05-05 21:15 35.50952 -88.57867 40869 ft 610 kts 60°
2026-05-05 21:16 35.54253 -88.48275 40874 ft 610 kts 60°
2026-05-05 21:16 35.57531 -88.38695 40879 ft 607 kts 60°
2026-05-05 21:17 35.60795 -88.29136 40875 ft 607 kts 60°
2026-05-05 21:17 35.64036 -88.19604 40881 ft 607 kts 60°
2026-05-05 21:18 35.67291 -88.10006 40880 ft 608 kts 60°
2026-05-05 21:18 35.70528 -88.00425 40880 ft 605 kts 60°
2026-05-05 21:19 35.73749 -87.90873 40904 ft 605 kts 60°
2026-05-05 21:19 35.76967 -87.81286 40882 ft 605 kts 60°
2026-05-05 21:20 35.80156 -87.71743 40884 ft 605 kts 60°
2026-05-05 21:20 35.83300 -87.62145 40885 ft 602 kts 60°
2026-05-05 21:21 35.86467 -87.52571 40890 ft 604 kts 60°
2026-05-05 21:21 35.89614 -87.42934 40893 ft 604 kts 60°
2026-05-05 21:22 35.92760 -87.33326 40888 ft 604 kts 60°
2026-05-05 21:22 35.95885 -87.23715 40887 ft 601 kts 60°
2026-05-05 21:23 35.99002 -87.14129 40880 ft 602 kts 60°
2026-05-05 21:23 36.02092 -87.04573 40876 ft 603 kts 61°
2026-05-05 21:24 36.05195 -86.94957 40868 ft 602 kts 61°
2026-05-05 21:24 36.08276 -86.85367 40869 ft 598 kts 61°
2026-05-05 21:25 36.11347 -86.75792 40895 ft 600 kts 61°
2026-05-05 21:25 36.14415 -86.66189 40895 ft 599 kts 61°
2026-05-05 21:26 36.17544 -86.56623 40901 ft 599 kts 60°
2026-05-05 21:26 36.20609 -86.47124 40913 ft 597 kts 61°
2026-05-05 21:27 36.23693 -86.37591 40909 ft 596 kts 60°
2026-05-05 21:27 36.26770 -86.28028 40909 ft 597 kts 61°
2026-05-05 21:28 36.29817 -86.18517 40904 ft 597 kts 60°
2026-05-05 21:28 36.32873 -86.08969 40904 ft 594 kts 61°
2026-05-05 21:29 36.35913 -85.99420 40901 ft 595 kts 60°
2026-05-05 21:29 36.38949 -85.89873 40895 ft 594 kts 61°
2026-05-05 21:30 36.41976 -85.80300 40899 ft 595 kts 61°
2026-05-05 21:30 36.45007 -85.70704 40907 ft 595 kts 61°
2026-05-05 21:31 36.48001 -85.61174 40900 ft 596 kts 61°
2026-05-05 21:31 36.51015 -85.51566 40909 ft 596 kts 61°
2026-05-05 21:32 36.54018 -85.41949 40922 ft 597 kts 61°
2026-05-05 21:32 36.57000 -85.32363 40905 ft 592 kts 61°
2026-05-05 21:33 36.59952 -85.22862 40914 ft 592 kts 61°
2026-05-05 21:33 36.62914 -85.13271 40923 ft 593 kts 62°
2026-05-05 21:34 36.65871 -85.03680 40938 ft 594 kts 62°
2026-05-05 21:34 36.68806 -84.94110 40934 ft 590 kts 62°
2026-05-05 21:35 36.71740 -84.84535 40933 ft 592 kts 62°
2026-05-05 21:35 36.74669 -84.74922 40934 ft 592 kts 62°
2026-05-05 21:36 36.77588 -84.65323 40941 ft 591 kts 62°
2026-05-05 21:36 36.80474 -84.55794 40937 ft 590 kts 62°
2026-05-05 21:37 36.83367 -84.46209 40917 ft 590 kts 62°
2026-05-05 21:37 36.86255 -84.36610 40975 ft 591 kts 62°
2026-05-05 21:38 36.89140 -84.26986 40953 ft 591 kts 62°
2026-05-05 21:38 36.92012 -84.17372 40946 ft 590 kts 62°
2026-05-05 21:39 36.94875 -84.07761 40939 ft 590 kts 62°
2026-05-05 21:39 36.97729 -83.98131 40939 ft 590 kts 62°
2026-05-05 21:40 37.00578 -83.88500 40934 ft 591 kts 62°
2026-05-05 21:40 37.02936 -83.80488 40936 ft 589 kts 62°
2026-05-05 21:41 37.06228 -83.69285 40928 ft 590 kts 62°
2026-05-05 21:41 37.09055 -83.59626 40925 ft 591 kts 62°
2026-05-05 21:42 37.11394 -83.51601 40929 ft 589 kts 62°
2026-05-05 21:42 37.14192 -83.41975 40921 ft 588 kts 62°
2026-05-05 21:43 37.16994 -83.32307 40918 ft 590 kts 62°
2026-05-05 21:43 37.19778 -83.22649 40922 ft 587 kts 63°
2026-05-05 21:44 37.22554 -83.13009 40926 ft 587 kts 62°
2026-05-05 21:44 37.25315 -83.03362 40914 ft 588 kts 62°
2026-05-05 21:45 37.28082 -82.93680 40925 ft 590 kts 62°
2026-05-05 21:45 37.30844 -82.83963 40913 ft 590 kts 62°
2026-05-05 21:46 37.33579 -82.74319 40918 ft 589 kts 62°
2026-05-05 21:46 37.36317 -82.64622 40930 ft 589 kts 62°
2026-05-05 21:47 37.39054 -82.54902 40934 ft 589 kts 63°
2026-05-05 21:47 37.41774 -82.45181 40914 ft 589 kts 62°
2026-05-05 21:48 37.44497 -82.35458 40926 ft 586 kts 63°
2026-05-05 21:48 37.47175 -82.25835 40913 ft 588 kts 63°
2026-05-05 21:49 37.49874 -82.16088 40897 ft 588 kts 63°
2026-05-05 21:49 37.52566 -82.06358 40905 ft 588 kts 63°
2026-05-05 21:50 37.55254 -81.96601 40912 ft 589 kts 63°
2026-05-05 21:50 37.57925 -81.86841 40911 ft 589 kts 63°
2026-05-05 21:51 37.60587 -81.77127 40908 ft 590 kts 63°
2026-05-05 21:51 37.63241 -81.67349 40896 ft 590 kts 63°
2026-05-05 21:52 37.67222 -81.52667 40914 ft 590 kts 63°
2026-05-05 21:53 37.69860 -81.42876 40933 ft 588 kts 63°
2026-05-05 21:53 37.72500 -81.33050 40963 ft 590 kts 63°
2026-05-05 21:54 37.75125 -81.23233 40980 ft 587 kts 64°
2026-05-05 21:54 37.77630 -81.13450 40962 ft 593 kts 69°
2026-05-05 21:55 37.78754 -81.02998 40970 ft 606 kts 81°
2026-05-05 21:55 37.79300 -80.92395 40963 ft 603 kts 79°
2026-05-05 21:56 37.80130 -80.81892 40951 ft 598 kts 79°
2026-05-05 21:56 37.80714 -80.71359 40927 ft 600 kts 79°
2026-05-05 21:57 37.81460 -80.60921 40959 ft 599 kts 79°
2026-05-05 21:57 37.82080 -80.50359 40974 ft 600 kts 80°
2026-05-05 21:58 37.82765 -80.39873 40975 ft 598 kts 79°
2026-05-05 21:58 37.83400 -80.29347 40979 ft 600 kts 80°
2026-05-05 21:59 37.84036 -80.18897 40963 ft 598 kts 79°
2026-05-05 21:59 37.84666 -80.08432 40981 ft 594 kts 80°
2026-05-05 22:00 37.85274 -79.98002 41001 ft 593 kts 79°
2026-05-05 22:00 37.85887 -79.87566 41013 ft 594 kts 80°
2026-05-05 22:01 37.86476 -79.77130 41031 ft 594 kts 80°
2026-05-05 22:01 37.86905 -79.66782 41006 ft 592 kts 82°
2026-05-05 22:02 37.87278 -79.56367 41025 ft 591 kts 82°
2026-05-05 22:02 37.87617 -79.45956 41020 ft 592 kts 82°
2026-05-05 22:03 37.87955 -79.35591 41014 ft 583 kts 83°
2026-05-05 22:03 37.88899 -79.25463 40990 ft 579 kts 75°
2026-05-05 22:04 37.90148 -79.15370 40963 ft 581 kts 76°
2026-05-05 22:04 37.91266 -79.05249 40929 ft 579 kts 76°
2026-05-05 22:05 37.92468 -78.95231 40926 ft 575 kts 76°
2026-05-05 22:05 37.93591 -78.85170 40916 ft 576 kts 76°
2026-05-05 22:06 37.94751 -78.75133 40909 ft 576 kts 76°
2026-05-05 22:06 37.95868 -78.65126 40900 ft 573 kts 76°
2026-05-05 22:07 37.96991 -78.55143 40914 ft 572 kts 76°
2026-05-05 22:07 37.98100 -78.45156 40918 ft 572 kts 77°
2026-05-05 22:08 37.99200 -78.35152 40917 ft 573 kts 76°
2026-05-05 22:08 38.00297 -78.25134 40909 ft 573 kts 77°
2026-05-05 22:09 38.01980 -78.15366 40902 ft 561 kts 64°
2026-05-05 22:09 38.05463 -78.06776 40959 ft 545 kts 50°
2026-05-05 22:10 38.09740 -77.98814 40949 ft 547 kts 50°
2026-05-05 22:10 38.13689 -77.90513 40946 ft 547 kts 51°
2026-05-05 22:11 38.17832 -77.82440 40917 ft 546 kts 50°
2026-05-05 22:11 38.21826 -77.74253 40909 ft 547 kts 51°
2026-05-05 22:12 38.25932 -77.66039 40911 ft 548 kts 50°
2026-05-05 22:12 38.29960 -77.57858 40914 ft 549 kts 52°
2026-05-05 22:13 38.34011 -77.49639 40922 ft 547 kts 51°
2026-05-05 22:13 38.38071 -77.41423 40919 ft 546 kts 50°
2026-05-05 22:14 38.42982 -77.34274 40892 ft 528 kts 33°
2026-05-05 22:14 38.48891 -77.28826 40914 ft 524 kts 27°
2026-05-05 22:15 38.54844 -77.23428 40913 ft 524 kts 28°
2026-05-05 22:15 38.57827 -77.20722 40612 ft 528 kts 28°
2026-05-05 22:15 38.60818 -77.18039 40240 ft 522 kts 28°
2026-05-05 22:15 38.63772 -77.15375 39863 ft 517 kts 28°
2026-05-05 22:16 38.66659 -77.12748 39525 ft 514 kts 28°
2026-05-05 22:16 38.69566 -77.10105 39134 ft 511 kts 28°
2026-05-05 22:16 38.72458 -77.07486 38784 ft 509 kts 27°
2026-05-05 22:16 38.75387 -77.04831 38441 ft 519 kts 28°
2026-05-05 22:17 38.78167 -77.01839 37993 ft 527 kts 37°
2026-05-05 22:17 38.80642 -76.98332 37571 ft 530 kts 43°
2026-05-05 22:17 38.82998 -76.94717 37174 ft 527 kts 43°
2026-05-05 22:17 38.85373 -76.91138 36811 ft 525 kts 42°
2026-05-05 22:18 38.87758 -76.87596 36433 ft 527 kts 42°
2026-05-05 22:18 38.90153 -76.84008 35973 ft 540 kts 43°
2026-05-05 22:18 38.92582 -76.80303 35222 ft 541 kts 43°
2026-05-05 22:18 38.94983 -76.76601 34509 ft 536 kts 44°
2026-05-05 22:19 38.97108 -76.72648 33738 ft 541 kts 53°
2026-05-05 22:19 38.98822 -76.68222 32923 ft 559 kts 60°
2026-05-05 22:19 39.00432 -76.63701 32156 ft 553 kts 61°
2026-05-05 22:19 39.02040 -76.59250 31408 ft 546 kts 61°
2026-05-05 22:20 39.03656 -76.54844 30677 ft 541 kts 62°
2026-05-05 22:20 39.05243 -76.50477 29951 ft 535 kts 63°
2026-05-05 22:20 39.06779 -76.46183 29106 ft 524 kts 63°
2026-05-05 22:20 39.08297 -76.41948 28293 ft 519 kts 63°
2026-05-05 22:21 39.09814 -76.37760 27508 ft 514 kts 63°
2026-05-05 22:21 39.11313 -76.33606 26747 ft 510 kts 64°
2026-05-05 22:21 39.12791 -76.29473 25998 ft 505 kts 64°
2026-05-05 22:21 39.14275 -76.25377 25260 ft 500 kts 63°
2026-05-05 22:22 39.16229 -76.21717 24460 ft 494 kts 46°
2026-05-05 22:22 39.18660 -76.18718 23779 ft 489 kts 40°
2026-05-05 22:22 39.21186 -76.15809 23050 ft 485 kts 39°
2026-05-05 22:22 39.23694 -76.12928 22260 ft 476 kts 40°
2026-05-05 22:23 39.26118 -76.10065 21491 ft 471 kts 40°
2026-05-05 22:23 39.28637 -76.07417 20706 ft 464 kts 33°
2026-05-05 22:23 39.31256 -76.05002 19974 ft 460 kts 33°
2026-05-05 22:23 39.33835 -76.02591 19258 ft 456 kts 34°
2026-05-05 22:24 39.36396 -76.00159 18743 ft 464 kts 34°
2026-05-05 22:24 39.39056 -75.97652 18285 ft 474 kts 33°
2026-05-05 22:24 39.41742 -75.95137 17535 ft 474 kts 33°
2026-05-05 22:24 39.44363 -75.92671 16765 ft 470 kts 33°
2026-05-05 22:25 39.46989 -75.90186 16008 ft 465 kts 33°
2026-05-05 22:25 39.49587 -75.87730 15267 ft 460 kts 33°
2026-05-05 22:25 39.52164 -75.85299 14536 ft 455 kts 33°
2026-05-05 22:25 39.54708 -75.82896 13828 ft 450 kts 33°
2026-05-05 22:26 39.57222 -75.80514 13140 ft 445 kts 33°
2026-05-05 22:26 39.59716 -75.78156 13063 ft 444 kts 33°
2026-05-05 22:26 39.62247 -75.75846 13073 ft 445 kts 32°
2026-05-05 22:26 39.64792 -75.73563 13079 ft 446 kts 32°
2026-05-05 22:27 39.67325 -75.71236 13075 ft 447 kts 32°
2026-05-05 22:27 39.69853 -75.68879 13076 ft 447 kts 32°
2026-05-05 22:27 39.72390 -75.66541 13075 ft 447 kts 32°
2026-05-05 22:27 39.74941 -75.64215 13071 ft 447 kts 32°
2026-05-05 22:28 39.76621 -75.62677 13071 ft 447 kts 32°
2026-05-05 22:28 39.79158 -75.60334 13069 ft 447 kts 32°
2026-05-05 22:28 39.81695 -75.57985 13076 ft 448 kts 32°
2026-05-05 22:28 39.84233 -75.55643 13075 ft 447 kts 32°
2026-05-05 22:29 39.86779 -75.53297 13077 ft 447 kts 32°
2026-05-05 22:29 39.89317 -75.50950 13085 ft 447 kts 32°
2026-05-05 22:29 39.91850 -75.48601 13083 ft 447 kts 32°
2026-05-05 22:29 39.94343 -75.46289 13081 ft 446 kts 32°
2026-05-05 22:30 39.96879 -75.43940 13074 ft 447 kts 32°
2026-05-05 22:30 39.99410 -75.41592 13075 ft 448 kts 32°
2026-05-05 22:30 40.01942 -75.39237 13071 ft 447 kts 32°
2026-05-05 22:30 40.04486 -75.36871 13071 ft 447 kts 32°
2026-05-05 22:31 40.07018 -75.34515 13067 ft 447 kts 32°
2026-05-05 22:31 40.09548 -75.32157 13076 ft 447 kts 32°
2026-05-05 22:31 40.12077 -75.29797 12978 ft 449 kts 33°
2026-05-05 22:31 40.14621 -75.27424 12476 ft 445 kts 33°
2026-05-05 22:32 40.17132 -75.25078 11965 ft 442 kts 32°
2026-05-05 22:32 40.19578 -75.22795 11459 ft 415 kts 32°
2026-05-05 22:32 40.21832 -75.20686 11065 ft 380 kts 32°
2026-05-05 22:32 40.23848 -75.18801 11039 ft 343 kts 32°
2026-05-05 22:33 40.25701 -75.17070 11037 ft 316 kts 32°
2026-05-05 22:33 40.27502 -75.15395 10673 ft 321 kts 32°
2026-05-05 22:33 40.29321 -75.13699 10187 ft 320 kts 32°
2026-05-05 22:33 40.31119 -75.12005 9700 ft 316 kts 32°
2026-05-05 22:34 40.32814 -75.10182 9138 ft 316 kts 43°
2026-05-05 22:34 40.34311 -75.08059 8627 ft 315 kts 46°
2026-05-05 22:34 40.35785 -75.05939 8130 ft 314 kts 45°
2026-05-05 22:34 40.37283 -75.03842 7637 ft 316 kts 44°
2026-05-05 22:35 40.38789 -75.01746 7159 ft 314 kts 45°
2026-05-05 22:35 40.40252 -74.99681 7026 ft 304 kts 45°
2026-05-05 22:35 40.41691 -74.97628 7039 ft 312 kts 46°
2026-05-05 22:35 40.43151 -74.95515 7045 ft 312 kts 46°
2026-05-05 22:36 40.44602 -74.93393 7041 ft 312 kts 46°
2026-05-05 22:36 40.46049 -74.91254 7044 ft 313 kts 46°
2026-05-05 22:36 40.47492 -74.89105 7038 ft 312 kts 47°
2026-05-05 22:36 40.48929 -74.86952 7024 ft 313 kts 47°
2026-05-05 22:37 40.50368 -74.84803 7016 ft 313 kts 46°
2026-05-05 22:37 40.51845 -74.82665 6761 ft 318 kts 46°
2026-05-05 22:37 40.53338 -74.80515 6400 ft 318 kts 46°
2026-05-05 22:37 40.54824 -74.78388 6028 ft 314 kts 46°
2026-05-05 22:38 40.56297 -74.76294 5653 ft 311 kts 46°
2026-05-05 22:38 40.57770 -74.74210 5281 ft 310 kts 46°
2026-05-05 22:38 40.59238 -74.72152 5007 ft 304 kts 46°
2026-05-05 22:38 40.60676 -74.70150 5011 ft 303 kts 46°
2026-05-05 22:39 40.62107 -74.68087 5011 ft 307 kts 47°
2026-05-05 22:39 40.63528 -74.65983 5018 ft 306 kts 47°
2026-05-05 22:39 40.64937 -74.63882 5023 ft 308 kts 48°
2026-05-05 22:39 40.66355 -74.61765 5017 ft 308 kts 48°
2026-05-05 22:40 40.67786 -74.59650 5018 ft 307 kts 47°
2026-05-05 22:40 40.69183 -74.57586 5023 ft 306 kts 47°
2026-05-05 22:40 40.70319 -74.55237 4945 ft 307 kts 73°
2026-05-05 22:40 40.70519 -74.52457 4470 ft 304 kts 100°
2026-05-05 22:41 40.70172 -74.49757 3997 ft 294 kts 107°
2026-05-05 22:41 40.69767 -74.47148 3530 ft 287 kts 108°
2026-05-05 22:41 40.69426 -74.44576 3075 ft 286 kts 97°
2026-05-05 22:41 40.69951 -74.42078 2879 ft 286 kts 60°
2026-05-05 22:42 40.71221 -74.40008 3041 ft 294 kts 49°
2026-05-05 22:42 40.72605 -74.38035 3046 ft 292 kts 47°
2026-05-05 22:42 40.74000 -74.36054 3046 ft 295 kts 47°
2026-05-05 22:42 40.75376 -74.34095 3021 ft 297 kts 47°
2026-05-05 22:43 40.76781 -74.32086 3020 ft 297 kts 47°
2026-05-05 22:43 40.78176 -74.30067 3035 ft 299 kts 47°
2026-05-05 22:43 40.79578 -74.28044 3027 ft 299 kts 47°
2026-05-05 22:43 40.80977 -74.26029 3025 ft 297 kts 47°
2026-05-05 22:44 40.82369 -74.24006 3024 ft 299 kts 48°
2026-05-05 22:44 40.83713 -74.22002 2986 ft 280 kts 53°
2026-05-05 22:44 40.84646 -74.19846 2715 ft 259 kts 66°
2026-05-05 22:44 40.85363 -74.17746 2353 ft 245 kts 69°
2026-05-05 22:45 40.85998 -74.15718 2077 ft 235 kts 72°
2026-05-05 22:45 40.86586 -74.13787 1927 ft 217 kts 70°
2026-05-05 22:45 40.87180 -74.12036 1746 ft 202 kts 69°
2026-05-05 22:45 40.87716 -74.10406 1634 ft 185 kts 70°
2026-05-05 22:46 40.88173 -74.08899 1510 ft 164 kts 73°
2026-05-05 22:46 40.88543 -74.07512 1266 ft 158 kts 77°
2026-05-05 22:46 40.88697 -74.06164 945 ft 143 kts 102°
2026-05-05 22:46 40.88345 -74.05059 746 ft 127 kts 141°
2026-05-05 22:47 40.87646 -74.04291 646 ft 131 kts 157°
2026-05-05 22:47 40.86809 -74.04194 470 ft 118 kts 206°
2026-05-05 22:47 40.86190 -74.04855 262 ft 108 kts 224°
2026-05-05 22:47 40.85685 -74.05557 43 ft 100 kts 230°
2026-05-05 22:48 40.85271 -74.06152 13 ft 74 kts 229°
2026-05-05 22:48 40.85048 -74.06481 19 ft 38 kts 229°
2026-05-05 22:48 40.84976 -74.06661 23 ft 13 kts 311°
2026-05-05 22:48 40.85006 -74.06704 21 ft 0 kts 311°
2026-05-05 22:49 40.85034 -74.06715 21 ft 6 kts 24°
2026-05-05 22:49 40.85093 -74.06672 19 ft 11 kts 339°
2026-05-05 22:49 40.85135 -74.06757 17 ft 12 kts 293°
2026-05-05 22:49 40.85098 -74.06796 17 ft 6 kts 136°
2026-05-05 22:50 40.85098 -74.06760 18 ft 5 kts 47°
2026-05-05 22:50 40.85106 -74.06749 18 ft 0 kts 37°